Meridian, MS

10:25 PM CST on November 17, 2019 (GMT -0600)
Key

Weather History for KMEI - September, 2019

Change the Weather History Date:

Monday, September 30, 2019

  Actual Average Record
Temperature  
Mean Temperature 82 °F 70 °F  
Max Temperature 98 °F 82 °F 95 °F (1981)
Min Temperature 69 °F 57 °F 34 °F (1967)
Degree Days  
Heating Degree Days 0 1  
Month to date heating degree days 6  
Since 1 July heating degree days 7  
Cooling Degree Days 18 6  
Month to date cooling degree days 303  
Year to date cooling degree days 1923  
Growing Degree Days 32 (Base 50)    
Moisture  
Dew Point 68 °F    
Average Humidity 67    
Maximum Humidity 90    
Minimum Humidity 37    
Precipitation  
Precipitation 0.00 in 0.12 in 3.81 in (1985)
Month to date precipitation 3.43  
Year to date precipitation 42.39  
Sea Level Pressure  
Sea Level Pressure 30.09 in    
Wind  
Wind Speed 2 mph ()    
Max Wind Speed 8 mph    
Max Gust Speed -    
Visibility 9.9 miles    
Events      
T = Trace of Precipitation, MM = Missing Value Source: Averaged Metar Reports

Daily Weather History Graph

Daily Weather History Graph

Search for Another Location

Airport or City:

Astronomy

Sep. 30, 2019 Rise Set
Actual Time 6:48 AM CDT 6:41 PM CDT
Civil Twilight 6:23 AM CDT 7:05 PM CDT
Nautical Twilight 5:55 AM CDT 7:34 PM CDT
Astronomical Twilight 5:26 AM CDT 8:02 PM CDT
Moon 8:47 AM CDT (9/30) 8:23 PM CDT (9/30)
Length of Visible Light 12h 42m
Length of Day
11h 53m
Waxing Crescent, 6% of the Moon is Illuminated
Sep 30
Waxing Crescent
Oct 5
First Quarter
Oct 13
Full
Oct 21
Last Quarter
Oct 27
New

Hourly Weather History & Observations

Time (CDT) Temp. Heat Index Dew Point Humidity Pressure Visibility Wind Dir Wind Speed Gust Speed Precip Events Conditions
12:58 AM 73.0 °F - 68.0 °F 84% 30.10 in 10.0 mi Calm Calm - N/A   Clear
1:58 AM 72.0 °F - 68.0 °F 87% 30.10 in 10.0 mi Calm Calm - N/A   Clear
2:58 AM 71.1 °F - 68.0 °F 90% 30.10 in 10.0 mi South 8.1 mph - N/A   Clear
3:58 AM 71.1 °F - 66.9 °F 87% 30.11 in 10.0 mi SSW 3.5 mph - N/A   Clear
4:58 AM 70.0 °F - 66.0 °F 87% 30.12 in 10.0 mi Calm Calm - N/A   Clear
5:58 AM 70.0 °F - 66.0 °F 87% 30.13 in 10.0 mi Calm Calm - N/A   Clear
6:58 AM 69.1 °F - 66.0 °F 90% 30.14 in 8.0 mi Calm Calm - N/A   Clear
7:58 AM 73.0 °F - 66.9 °F 81% 30.15 in 10.0 mi Calm Calm - N/A   Clear
8:58 AM 81.0 °F 84.9 °F 71.1 °F 72% 30.16 in 10.0 mi Calm Calm - N/A   Clear
9:58 AM 86.0 °F 89.4 °F 68.0 °F 55% 30.16 in 10.0 mi South 3.5 mph - N/A   Clear
10:58 AM 90.0 °F 93.6 °F 68.0 °F 48% 30.16 in 10.0 mi South 4.6 mph - N/A   Clear
11:58 AM 91.9 °F 95.9 °F 68.0 °F 45% 30.14 in 10.0 mi East 5.8 mph - N/A   Scattered Clouds
12:58 PM 93.9 °F 97.5 °F 66.9 °F 41% 30.11 in 10.0 mi Variable 3.5 mph - N/A   Mostly Cloudy
1:58 PM 95.0 °F 97.9 °F 66.0 °F 38% 30.09 in 10.0 mi ENE 6.9 mph - N/A   Overcast
2:58 PM 96.1 °F 99.3 °F 66.0 °F 37% 30.06 in 10.0 mi Variable 3.5 mph - N/A   Mostly Cloudy
3:58 PM 96.1 °F 99.3 °F 66.0 °F 37% 30.05 in 10.0 mi Variable 5.8 mph - N/A   Mostly Cloudy
4:58 PM 93.0 °F 94.6 °F 64.0 °F 38% 30.04 in 10.0 mi SSE 4.6 mph - N/A   Clear
5:58 PM 89.1 °F 93.7 °F 69.1 °F 52% 30.03 in 10.0 mi Calm Calm - N/A   Clear
6:58 PM 82.9 °F 86.5 °F 69.1 °F 63% 30.04 in 10.0 mi Calm Calm - N/A   Clear
7:58 PM 80.1 °F 82.9 °F 69.1 °F 69% 30.05 in 10.0 mi Calm Calm - N/A   Clear
8:58 PM 77.0 °F - 69.1 °F 76% 30.06 in 10.0 mi Calm Calm - N/A   Clear
9:58 PM 75.0 °F - 69.1 °F 82% 30.06 in 10.0 mi Calm Calm - N/A   Clear
10:58 PM 73.9 °F - 68.0 °F 82% 30.06 in 10.0 mi Calm Calm - N/A   Clear
11:58 PM 73.0 °F - 68.0 °F 84% 30.05 in 10.0 mi Calm Calm - N/A   Clear